Weather History for Bucuresti / Imh, Romania

Change the Weather History Date:

Friday, March 21, 2008

  Actual Average Record
Temperature  
Mean Temperature 44 °F -  
Max Temperature 51 °F 60 °F - ()
Min Temperature 36 °F 39 °F - ()
Degree Days  
Heating Degree Days 22    
Moisture  
Dew Point 29 °F    
Average Humidity 51    
Maximum Humidity 70    
Minimum Humidity 28    
Precipitation  
Precipitation 0.00 in 0.06 in - ()
Sea Level Pressure  
Sea Level Pressure 29.56 in    
Wind  
Wind Speed 6 mph ()    
Max Wind Speed 16 mph    
Max Gust Speed -    
Visibility 6.1 miles    
Events      
T = Trace of Precipitation, MM = Missing Value Source: Averaged Metar Reports

Daily Weather History Graph

Daily Weather History Graph

Search for Another Location

Airport:

Trip Planner

Search our weather history database for the weather conditions in past years. The results will help you decide how hot, cold, wet, or windy it might be!

Date:

Astronomy

Mar. 21, 2008 Rise Set
Actual Time 6:16 AM EET 6:29 PM EET
Civil Twilight 5:47 AM EET 6:58 PM EET
Nautical Twilight 5:13 AM EET 7:32 PM EET
Astronomical Twilight 4:38 AM EET 8:07 PM EET
Moon 6:25 PM EET (3/21) 5:53 AM EET (3/21)
Length of Visible Light 13h 11m
Length of Day
12h 12m
Full, 100% of the Moon is Illuminated
Mar 21
Full
Mar 21
Full
Mar 29
Last Quarter
Apr 6
New
Apr 12
First Quarter

Hourly Weather History & Observations

Time (EET) Temp. Windchill Dew Point Humidity Pressure Visibility Wind Dir Wind Speed Gust Speed Precip Events Conditions
12:00 AM 38 °F - 22 °F 40% 29.68 in 6 mi Calm Calm - -   Partly Cloudy
12:00 AM 42.8 °F - 23.0 °F 46% 29.68 in - WNW 2.2 mph - N/A   Clear
12:30 AM 42.8 °F - 23.0 °F 46% 29.65 in - NW 2.2 mph - N/A   Clear
1:00 AM 37 °F - 22 °F 42% 29.65 in 6 mi NNW 2.2 mph - -   Partly Cloudy
1:00 AM 42.8 °F - 23.0 °F 46% 29.65 in - WSW 2.2 mph - N/A   Clear
1:30 AM 42.8 °F - 23.0 °F 46% 29.65 in - Calm Calm - N/A   Clear
2:00 AM 38 °F - 24 °F 44% 29.65 in 6 mi NW 2.2 mph - -   Mostly Cloudy
2:00 AM 42.8 °F 38.7 °F 28.4 °F 57% 29.65 in - WSW 6.7 mph - N/A   Clear
2:30 AM 42.8 °F 38.7 °F 30.2 °F 61% 29.62 in - WSW 6.7 mph - N/A   Clear
3:00 AM 41 °F - 26 °F 43% 29.62 in 6 mi SW 6.7 mph - -   Mostly Cloudy
3:00 AM 42.8 °F 38.7 °F 30.2 °F 61% 29.62 in - WSW 6.7 mph - N/A   Clear
3:30 AM 42.8 °F 37.6 °F 30.2 °F 61% 29.62 in - WSW 8.9 mph - N/A   Clear
4:00 AM 41 °F - 27 °F 44% 29.61 in 6 mi SW 4.5 mph - -   Mostly Cloudy
4:00 AM 42.8 °F 40.2 °F 28.4 °F 57% 29.62 in - West 4.5 mph - N/A   Clear
4:30 AM 41.0 °F 38.1 °F 26.6 °F 57% 29.62 in - West 4.5 mph - N/A   Clear
5:00 AM 40 °F - 24 °F 41% 29.60 in 6 mi West 4.5 mph - -   Mostly Cloudy
5:00 AM 42.8 °F 40.2 °F 28.4 °F 57% 29.59 in - Variable 4.5 mph - N/A   Clear
5:30 AM 41.0 °F 38.1 °F 28.4 °F 61% 29.59 in 6.2 mi Variable 4.5 mph - N/A   Overcast
6:00 AM 40 °F - 26 °F 45% 29.59 in 6 mi NW 4.5 mph - -   Mostly Cloudy
6:00 AM 41.0 °F 38.1 °F 30.2 °F 65% 29.59 in 6.2 mi Variable 4.5 mph - N/A   Overcast
6:30 AM 41.0 °F - 30.2 °F 65% 29.59 in - Variable 2.2 mph - N/A   Clear
7:00 AM 40 °F - 27 °F 47% 29.58 in 6 mi NW 4.5 mph - -   Scattered Clouds
7:00 AM 41.0 °F 38.1 °F 30.2 °F 65% 29.59 in 6.2 mi Variable 4.5 mph - N/A   Overcast
7:30 AM 41.0 °F 38.1 °F 32.0 °F 70% 29.59 in 6.2 mi Variable 4.5 mph - N/A   Mostly Cloudy
8:00 AM 41 °F - 29 °F 52% 29.59 in 6 mi WNW 4.5 mph - -   Mostly Cloudy
8:00 AM 42.8 °F 38.7 °F 32.0 °F 66% 29.59 in - WNW 6.7 mph - N/A   Clear
8:30 AM 42.8 °F 40.2 °F 32.0 °F 66% 29.59 in 6.2 mi Variable 4.5 mph - N/A   Overcast
9:00 AM 41 °F - 29 °F 52% 29.60 in 6 mi NW 4.5 mph - -   Overcast
9:00 AM 42.8 °F 38.7 °F 32.0 °F 66% 29.59 in 6.2 mi West 6.7 mph - N/A   Overcast
9:30 AM 42.8 °F 37.6 °F 32.0 °F 66% 29.59 in 6.2 mi WSW 8.9 mph - N/A   Mostly Cloudy
10:00 AM 42 °F - 30 °F 52% 29.60 in 6 mi West 6.7 mph - -   Mostly Cloudy
10:00 AM 44.6 °F 39.8 °F 33.8 °F 66% 29.59 in 6.2 mi WSW 8.9 mph - N/A   Mostly Cloudy
10:30 AM 44.6 °F 40.8 °F 32.0 °F 61% 29.59 in 6.2 mi West 6.7 mph - N/A   Mostly Cloudy
11:00 AM 44 °F - 31 °F 48% 29.58 in 6 mi West 8.9 mph - -   Mostly Cloudy
11:00 AM 46.4 °F 42.0 °F 33.8 °F 62% 29.59 in 6.2 mi WSW 8.9 mph - N/A   Scattered Clouds
11:30 AM 48.2 °F - 32.0 °F 54% 29.56 in 6.2 mi WSW 6.7 mph - N/A   Mostly Cloudy
12:00 PM 48.2 °F - 30.2 °F 50% 29.56 in 6.2 mi West 11.2 mph - N/A   Mostly Cloudy
12:30 PM 48.2 °F - 28.4 °F 46% 29.56 in 6.2 mi West 8.9 mph - N/A   Mostly Cloudy
1:00 PM 48 °F - 28 °F 33% 29.55 in 6 mi West 8.9 mph - -   Mostly Cloudy
1:00 PM 48.2 °F - 28.4 °F 46% 29.56 in 6.2 mi West 11.2 mph - N/A   Mostly Cloudy
1:30 PM 48.2 °F - 26.6 °F 43% 29.53 in 6.2 mi West 11.2 mph - N/A   Mostly Cloudy
2:00 PM 49 °F - 28 °F 31% 29.53 in 6 mi WSW 8.9 mph - -   Mostly Cloudy
2:00 PM 50.0 °F - 28.4 °F 43% 29.53 in 6.2 mi WSW 13.4 mph - N/A   Mostly Cloudy
2:30 PM 51.8 °F - 28.4 °F 41% 29.50 in 6.2 mi West 11.2 mph - N/A   Mostly Cloudy
3:00 PM 49 °F - 26 °F 28% 29.50 in 6 mi SW 11.2 mph - -   Mostly Cloudy
3:00 PM 51.8 °F - 28.4 °F 41% 29.50 in - SW 13.4 mph - N/A   Clear
3:30 PM 51.8 °F - 28.4 °F 41% 29.50 in - WSW 13.4 mph - N/A   Clear
4:00 PM 48 °F - 26 °F 29% 29.49 in 6 mi SW 11.2 mph - -   Mostly Cloudy
4:00 PM 51.8 °F - 28.4 °F 41% 29.47 in - WSW 15.7 mph - N/A   Clear
4:30 PM 50.0 °F - 32.0 °F 50% 29.50 in - SW 13.4 mph - N/A   Clear
5:00 PM 48 °F - 29 °F 35% 29.48 in 6 mi SSW 13.4 mph - -   Mostly Cloudy
5:00 PM 48.2 °F - 32.0 °F 54% 29.50 in - SW 13.4 mph - N/A   Clear
5:30 PM 48.2 °F - 32.0 °F 54% 29.47 in - SW 15.7 mph - N/A   Clear
6:00 PM 48 °F - 29 °F 36% 29.48 in 6 mi SSW 11.2 mph - -   Partly Cloudy
6:00 PM 48.2 °F - 32.0 °F 54% 29.47 in - SW 13.4 mph - N/A   Clear
6:30 PM 46.4 °F 40.5 °F 32.0 °F 57% 29.47 in - SSW 13.4 mph - N/A   Clear
7:00 PM 46 °F - 28 °F 37% 29.48 in 6 mi SSW 8.9 mph - -   Clear
7:00 PM 46.4 °F 40.5 °F 32.0 °F 57% 29.50 in - SW 13.4 mph - N/A   Clear
7:30 PM 46.4 °F 42.0 °F 32.0 °F 57% 29.50 in - SSW 8.9 mph - N/A   Clear
8:00 PM 44 °F - 29 °F 42% 29.49 in 6 mi South 8.9 mph - -   Clear
8:00 PM 46.4 °F 42.0 °F 32.0 °F 57% 29.50 in - SSW 8.9 mph - N/A   Clear
8:30 PM 44.6 °F 39.8 °F 30.2 °F 57% 29.50 in - South 8.9 mph - N/A   Clear
9:00 PM 44 °F - 28 °F 41% 29.49 in 6 mi South 8.9 mph - -  
9:00 PM 44.6 °F 40.8 °F 30.2 °F 57% 29.50 in - SSW 6.7 mph - N/A   Clear
9:30 PM 44.6 °F 40.8 °F 30.2 °F 57% 29.50 in - South 6.7 mph - N/A   Clear
10:00 PM 43 °F - 28 °F 43% 29.49 in 6 mi South 6.7 mph - -  
10:00 PM 44.6 °F 40.8 °F 30.2 °F 57% 29.50 in - South 6.7 mph - N/A   Clear
10:30 PM 44.6 °F 42.3 °F 32.0 °F 61% 29.50 in - South 4.5 mph - N/A   Clear
11:00 PM 42 °F - 28 °F 45% 29.50 in 6 mi South 4.5 mph - -   Partly Cloudy
11:00 PM 44.6 °F 40.8 °F 32.0 °F 61% 29.50 in - South 6.7 mph - N/A   Clear
11:30 PM 42.8 °F 38.7 °F 32.0 °F 66% 29.50 in - South 6.7 mph - N/A   Clear